User: anonymous   Login
Location: Unspecified
(0.0000°N, 0.0000°E)
Time: 11:38:23
(UTC+00:00)
Language:

Cosmos 1312 - Orbit

View from above orbital plane
View from above orbital plane
View from above satellite
View from above satellite

Ground track
Ground track

The orbit data is extracted from the following two-line orbital elements,

1 12879U 81098A   18018.82068854 +.00000049 +00000-0 +28129-3 0  9990
2 12879 082.6026 309.5346 0007120 343.1156 042.8187 12.42346788188165
Epoch (UTC): 18 January 2018 19:41:47
Eccentricity: 0.0007120
inclination: 82.6026°
perigee height: 1491 km
apogee height: 1502 km
right ascension of ascending node: 309.5346°
argument of perigee: 343.1156°
revolutions per day: 12.42346788
mean anomaly at epoch: 42.8187°
orbit number at epoch: 18816

The dashed part of the orbit path shows where the satellite is in the earth's shadow,  

DLR